Weather History for Altus AFB, OK

Change the Weather History Date:

Saturday, March 2, 2013

  Actual Average Record
Temperature  
Mean Temperature 43 °F -  
Max Temperature 61 °F 57 °F 80 °F (2008)
Min Temperature 25 °F 32 °F 11 °F (2014)
Degree Days  
Heating Degree Days 22    
Moisture  
Dew Point 32 °F    
Average Humidity 72    
Maximum Humidity 96    
Minimum Humidity 37    
Precipitation  
Precipitation 0.00 in - - ()
Sea Level Pressure  
Sea Level Pressure 30.31 in    
Wind  
Wind Speed 6 mph (SSE)    
Max Wind Speed 12 mph    
Max Gust Speed -    
Visibility 10 miles    
Events      
Averages and records for this station are not official NWS values.
T = Trace of Precipitation, MM = Missing Value Source: NWS Daily Summary

Daily Weather History Graph

Daily Weather History Graph

Search for Another Location

Airport:

Trip Planner

Search our weather history database for the weather conditions in past years. The results will help you decide how hot, cold, wet, or windy it might be!

Date:

Astronomy

Mar. 02, 2013 Rise Set
Actual Time 7:04 AM CST 6:34 PM CST
Civil Twilight 6:39 AM CST 6:59 PM CST
Nautical Twilight 6:10 AM CST 7:28 PM CST
Astronomical Twilight 5:40 AM CST 7:57 PM CST
Moon 11:59 PM CST (3/2) 9:48 AM CST (3/2)
Length of Visible Light 12h 20m
Length of Day
11h 29m
Waning Gibbous, 74% of the Moon is Illuminated
Mar 2
Waning Gibbous
Mar 4
Last Quarter
Mar 11
New
Mar 19
First Quarter
Mar 27
Full

Hourly Weather History & Observations

Time (CST) Temp. Windchill Dew Point Humidity Pressure Visibility Wind Dir Wind Speed Gust Speed Precip Events Conditions
12:55 AM 29.3 °F 21.5 °F 26.2 °F 88% 30.39 in 10.0 mi North 8.1 mph - N/A   Clear
1:55 AM 29.3 °F - 26.6 °F 90% 30.40 in 10.0 mi Calm Calm - N/A   Clear
2:55 AM 30.4 °F 25.6 °F 27.1 °F 88% 30.40 in 10.0 mi North 4.6 mph - N/A   Clear
3:55 AM 29.5 °F 23.4 °F 26.4 °F 88% 30.38 in 10.0 mi NW 5.8 mph - N/A   Clear
4:55 AM 29.8 °F 23.0 °F 27.1 °F 90% 30.39 in 10.0 mi NW 6.9 mph - N/A   Clear
5:55 AM 25.5 °F 21.3 °F 23.5 °F 92% 30.40 in 10.0 mi NE 3.5 mph - N/A   Clear
6:55 AM 25.0 °F 17.1 °F 24.1 °F 96% 30.41 in 10.0 mi NNE 6.9 mph - N/A   Clear
7:55 AM 28.8 °F - 26.6 °F 92% 30.42 in 10.0 mi Calm Calm - N/A   Clear
8:55 AM 32.4 °F 27.9 °F 29.8 °F 90% 30.45 in 10.0 mi SW 4.6 mph - N/A   Clear
9:55 AM 36.7 °F 31.2 °F 32.2 °F 84% 30.43 in 10.0 mi SW 6.9 mph - N/A   Clear
10:55 AM 41.2 °F 37.3 °F 32.4 °F 71% 30.41 in 10.0 mi South 5.8 mph - N/A   Clear
11:55 AM 46.6 °F - 33.3 °F 60% 30.38 in 10.0 mi Variable 5.8 mph - N/A   Clear
12:55 PM 51.3 °F - 33.3 °F 50% 30.33 in 10.0 mi Variable 4.6 mph - N/A   Clear
1:55 PM 55.0 °F - 33.3 °F 44% 30.28 in 10.0 mi SSW 11.5 mph - N/A   Scattered Clouds
2:55 PM 58.6 °F - 33.6 °F 39% 30.24 in 10.0 mi SW 10.4 mph - N/A   Clear
3:55 PM 60.4 °F - 34.5 °F 38% 30.22 in 10.0 mi South 6.9 mph - N/A   Clear
4:55 PM 61.7 °F - 35.1 °F 37% 30.20 in 10.0 mi SSW 4.6 mph - N/A   Clear
5:55 PM 59.9 °F - 37.6 °F 44% 30.19 in 10.0 mi SE 6.9 mph - N/A   Clear
6:55 PM 51.8 °F - 38.8 °F 61% 30.19 in 10.0 mi SE 9.2 mph - N/A   Clear
7:55 PM 47.7 °F - 37.0 °F 67% 30.20 in 10.0 mi ESE 8.1 mph - N/A   Clear
8:55 PM 43.3 °F 39.2 °F 36.5 °F 77% 30.20 in 10.0 mi ESE 6.9 mph - N/A   Clear
9:55 PM 41.7 °F 37.3 °F 35.4 °F 78% 30.21 in 10.0 mi ESE 6.9 mph - N/A   Clear
10:55 PM 39.4 °F 35.2 °F 34.3 °F 82% 30.21 in 10.0 mi SE 5.8 mph - N/A   Clear
11:55 PM 39.4 °F 34.5 °F 33.8 °F 80% 30.18 in 10.0 mi ESE 6.9 mph - N/A   Clear